Havre, MT

10:11 PM MST on December 14, 2017 (GMT -0700)
Havre City-County

Weather History for KHVR - December, 2012

Change the Weather History Date:

Monday, December 10, 2012

  Actual Average Record
Temperature  
Mean Temperature 26 °F 20 °F  
Max Temperature 32 °F 31 °F 66 °F (1939)
Min Temperature 20 °F 9 °F -28 °F (1919)
Degree Days  
Heating Degree Days 39 45  
Month to date heating degree days 353 435  
Since 1 July heating degree days 2340 2478  
Cooling Degree Days 0 0  
Month to date cooling degree days 0 0  
Year to date cooling degree days 507 387  
Moisture  
Dew Point 20 °F    
Average Humidity 74    
Maximum Humidity 84    
Minimum Humidity 63    
Precipitation  
Precipitation T in 0.01 in 0.34 in (1953)
Month to date precipitation 0.17 0.12  
Year to date precipitation 12.59 10.92  
Snow  
Snow T in 0.20 in 5.80 in (1933)
Month to date snowfall 2.0 2.1  
Since 1 July snowfall 20.0 9.7  
Snow Depth 2.00 in    
Sea Level Pressure  
Sea Level Pressure 29.93 in    
Wind  
Wind Speed 13 mph (WSW)    
Max Wind Speed 22 mph    
Max Gust Speed 29 mph    
Visibility 10 miles    
Events      
T = Trace of Precipitation, MM = Missing Value Source: NWS Daily Summary

Daily Weather History Graph

Daily Weather History Graph

Search for Another Location

Airport or City:

Trip Planner

Search our weather history database for the weather conditions in past years. The results will help you decide how hot, cold, wet, or windy it might be!

Date:

Astronomy

Dec. 10, 2012 Rise Set
Actual Time 8:00 AM MST 4:23 PM MST
Civil Twilight 7:23 AM MST 5:00 PM MST
Nautical Twilight 6:43 AM MST 5:40 PM MST
Astronomical Twilight 6:05 AM MST 6:18 PM MST
Moon 4:38 AM MST (12/10) 2:23 PM MST (12/10)
Length of Visible Light 9h 36m
Length of Day
8h 22m
Waning Crescent, 10% of the Moon is Illuminated
Dec 10
Waning Crescent
Dec 13
New
Dec 19
First Quarter
Dec 28
Full
Jan 4
Last Quarter

Hourly Weather History & Observations

Time (MST) Temp. Windchill Dew Point Humidity Pressure Visibility Wind Dir Wind Speed Gust Speed Precip Events Conditions
12:53 AM 28.0 °F 14.9 °F 19.0 °F 69% 29.88 in 10.0 mi SW 19.6 mph - N/A   Overcast
1:53 AM 28.0 °F 17.0 °F 19.9 °F 72% 29.87 in 10.0 mi SW 13.8 mph - N/A   Overcast
2:53 AM 28.9 °F 17.7 °F 19.9 °F 69% 29.88 in 10.0 mi SW 15.0 mph - 0.00 in   Overcast
3:53 AM 28.0 °F 17.5 °F 19.9 °F 72% 29.88 in 10.0 mi SW 12.7 mph - N/A   Overcast
4:53 AM 28.0 °F 17.5 °F 19.9 °F 72% 29.89 in 10.0 mi SW 12.7 mph - N/A   Overcast
5:53 AM 28.0 °F 19.3 °F 21.0 °F 75% 29.91 in 10.0 mi WSW 9.2 mph - N/A   Overcast
6:53 AM 28.0 °F 17.5 °F 21.9 °F 78% 29.93 in 10.0 mi West 12.7 mph - N/A   Scattered Clouds
7:53 AM 26.1 °F 16.2 °F 21.9 °F 84% 29.94 in 10.0 mi WSW 10.4 mph - N/A   Scattered Clouds
8:53 AM 25.0 °F 14.8 °F 19.9 °F 81% 29.96 in 10.0 mi West 10.4 mph - N/A   Scattered Clouds
9:53 AM 28.9 °F 17.7 °F 21.9 °F 75% 29.96 in 10.0 mi West 15.0 mph - N/A   Mostly Cloudy
10:53 AM 32.0 °F 21.6 °F 21.0 °F 64% 29.96 in 10.0 mi WNW 15.0 mph - N/A   Clear
11:53 AM 30.0 °F 18.7 °F 21.0 °F 69% 29.96 in 10.0 mi SW 16.1 mph - N/A   Overcast
12:53 PM 30.0 °F 19.1 °F 23.0 °F 75% 29.94 in 10.0 mi SW 15.0 mph - N/A   Scattered Clouds
1:53 PM 30.9 °F 18.7 °F 23.0 °F 72% 29.92 in 10.0 mi SW 19.6 mph - N/A   Partly Cloudy
2:53 PM 30.0 °F 19.1 °F 21.9 °F 72% 29.91 in 10.0 mi SW 15.0 mph - N/A   Partly Cloudy
3:53 PM 28.9 °F 17.7 °F 21.0 °F 72% 29.92 in 10.0 mi SW 15.0 mph - N/A   Overcast
4:53 PM 28.9 °F 21.1 °F 21.0 °F 72% 29.94 in 10.0 mi WSW 8.1 mph - N/A   Overcast
5:53 PM 21.9 °F 11.7 °F 17.1 °F 82% 29.96 in 10.0 mi SW 9.2 mph - N/A   Partly Cloudy
6:53 PM 26.1 °F 16.8 °F 19.0 °F 75% 29.96 in 10.0 mi SW 9.2 mph - N/A   Overcast
7:53 PM 25.0 °F 17.1 °F 18.0 °F 75% 29.96 in 10.0 mi SW 6.9 mph - N/A   Mostly Cloudy
8:53 PM 25.0 °F 15.5 °F 17.1 °F 72% 29.95 in 10.0 mi SW 9.2 mph - N/A   Overcast
9:53 PM 21.9 °F 11.0 °F 17.1 °F 82% 29.94 in 10.0 mi SW 10.4 mph - N/A   Overcast
10:53 PM 21.0 °F 11.4 °F 15.1 °F 78% 29.91 in 10.0 mi SW 8.1 mph - N/A   Overcast
11:53 PM 19.9 °F 7.3 °F 14.0 °F 78% 29.90 in 10.0 mi WSW 12.7 mph - N/A   Mostly Cloudy